Zurück zum Katalog

THORAD AGENA D DEB

AktivPO
NORAD 5347·DEBRIS·🇺🇸 United States

Gestartet Apr 8, 1970 von Vandenberg Space Force Base

Loading…

Nächste Überflüge (nächste 24 Stunden)

TLE

AktuellSource: Space-Track

Epoche: Sep 14, 2026, 05:20 UTC

1 05347U 70025KL  26257.22238005  .00000484  00000-0  45128-3 0  9996
2 05347  99.9055 177.5425 0044450 321.6524 198.1382 13.87120810769251

Verfolge THORAD AGENA D DEB in Echtzeit mit AllMySat

Download on the App Store